Terminal Aerodrome Forecast
Issued by NWS

Home | Current Version | Previous Version | Graphics & Text | Print | Product List | Glossary On
Versions: 1 2 3 4 5 6 7 8 9 10 11 12 13 14
000
FTUS43 KOAX 222100 AAA
TAFCDR
TAF AMD
KCDR 222157Z 2222/2318 30010KT P6SM SKC
     FM230200 VRB03KT P6SM SKC
     FM231700 24009KT P6SM SCT250=

USA.gov is the U.S. government's official web portal to all federal, state and local government web resources and services.